Location: Chuathbaluk
(61.5726°N, 159.2454°W)
Time: 14:28:00
(UTC+00:00)

DELFI C3 - Pass Details

Date: 17 January 2021
Orbit: 531 x 550 km, 97.4° (Epoch: 04 March)

Event Time Altitude Azimuth Distance (km) Brightness Sun altitude
Rises 17:51:11 0° 24° (NNE) 2,743 ? -10.8°
Reaches altitude 10° 17:54:04 10° 46° (NE) 1,844 ? -10.4°
Maximum altitude 17:56:33 16° 85° (E) 1,499 ? -10.2°
Drops below altitude 10° 17:59:02 10° 124° (ESE) 1,834 ? -9.9°
Sets 18:01:52 0° 146° (SSE) 2,721 ? -9.6°
